Location: Wanzleben
(52.0609°N, 11.4408°E)
Time: 15:27:32
(UTC+00:00)

Cosmos 2263 Rocket - Pass Details

Date: 25 January 2021
Orbit: 825 x 847 km, 71.0° (Epoch: 06 March)

Event Time Altitude Azimuth Distance (km) Brightness Sun altitude
Rises 19:23:53 0° 295° (WNW) 3,405 6.4 -32.6°
Reaches altitude 10° 19:28:12 10° 326° (NW) 2,466 5.1 -33.2°
Maximum altitude 19:30:17 12° 348° (NNW) 2,326 4.7 -33.5°
Enters shadow 19:31:23 11° 360° (N) 2,364 4.6 -33.7°
